Погода в Вертикосе

Россия / Томская область     59°23′17″N   79°40′19″E
темп.,
°C
ветер,
м/с
пор.,
м/с
влажн.,
%
обл.,
%
осадки,
мм/ч
давл.,
гПа
погр.,
м
12 мая, ср
ср1201:00+8юв22575 0.0 102211
04:00+7ююз22625 0.0 102114
07:00+7ююз2360100 0.0 102067
10:00+12ююз3447100 0.0 1018352
13:00+15юз2340100 0.0 1017883
16:00+16ссз755299 0.0 10161070
19:00+11ссз7978100 0.1 1017620
22:00+8ссз697698 0.0 1019712
13 мая, чт
чт1301:00+7ссз6973100 0.0 1018771
04:00+6ссз5873100 0.0 1018637
07:00+5с59711 0.0 1018378
10:00+9с464765 0.0 1017704
13:00+13ссз4538100 0.0 10161440
16:00+14сз563573 0.0 10161727
19:00+12сз885891 0.0 10171172
22:00+9сз71071100 0.0 1018755
14 мая, пт
пт1401:00+8ссз8117591 0.1 1019887
04:00+5ссз81071100 0.0 1021993
07:00+3ссз6106255 0.0 1023746
10:00+6сз574163 0.0 1023891
13:00+10зсз563367 0.0 10221061
16:00+15зюз71135100 0.0 10181499
19:00+13юз6145279 0.4 1016727
22:00+15зюз6136163 0.1 1013354
15 мая, сб
сб1501:00+14з6138298 2.1 1013345
04:00+12зсз48945 0.3 1014161
07:00+10с5883100 0.3 1016428
10:00+10ссв3467100 0.0 1018506
13:00+13св215691 0.0 1017732
16:00+13св3365100 0.9 1016538
19:00+10вюв4692100 8.4 1014273
22:00+9в4594100 2.2 1014260
16 мая, вс
вс1601:00+9в3494100 2.4 1013229
04:00+9в1195100 0.0 101296
07:00+9зсз1295100 0.1 1012113
10:00+11сз2388100 0.1 1012444
13:00+12ссз3586100 0.1 1012577
16:00+9с4689100 0.0 1013436
19:00+11ссз5676100 0.0 1015762
22:00+11ссз3375100 0.0 101588